Location: Aboncourt
(47.7710°N, 5.9826°E)
Time: 02:46:26
(UTC+00:00)

Cosmos 1151 Rocket - Pass Details

Date: 05 July 2020
Orbit: 591 x 617 km, 82.5° (Epoch: 03 August)

Event Time Altitude Azimuth Distance (km) Brightness Sun altitude
Rises 23:32:30 0° 345° (NNW) 2,879 8.0 -19.5°
Reaches altitude 10° 23:34:47 10° 340° (NNW) 1,966 6.7 -19.6°
Maximum altitude 23:38:58 49° 267° (W) 785 3.5 -19.6°
Enters shadow 23:40:03 39° 223° (SW) 908 3.5 -19.6°
